TimeMDT,TemperatureF,Dew PointF,Humidity,Sea Level PressureIn,VisibilityMPH,Wind Direction,Wind SpeedMPH,Gust SpeedMPH,PrecipitationIn,Events,Conditions,WindDirDegrees,DateUTC
12:53 AM,50.0,41.0,71,30.05,10.0,SSE,5.8,-,N/A,,Clear,160,2012-09-29 06:53:00
1:53 AM,48.0,41.0,77,30.06,10.0,SSE,8.1,-,N/A,,Clear,160,2012-09-29 07:53:00
2:53 AM,46.0,39.9,79,30.06,10.0,SE,6.9,-,N/A,,Clear,130,2012-09-29 08:53:00
3:53 AM,46.9,39.0,74,30.07,10.0,SE,6.9,-,N/A,,Clear,140,2012-09-29 09:53:00
4:53 AM,44.1,39.0,82,30.08,10.0,SSE,6.9,-,N/A,,Clear,160,2012-09-29 10:53:00
5:53 AM,43.0,37.9,82,30.09,10.0,SSE,5.8,-,N/A,,Clear,150,2012-09-29 11:53:00
6:53 AM,42.1,37.9,85,30.12,10.0,ESE,5.8,-,N/A,,Clear,120,2012-09-29 12:53:00
7:53 AM,44.1,37.9,79,30.16,10.0,Calm,Calm,-,N/A,,Clear,0,2012-09-29 13:53:00
8:53 AM,50.0,39.9,68,30.16,10.0,SSE,3.5,-,N/A,,Clear,150,2012-09-29 14:53:00
9:53 AM,57.0,39.0,51,30.15,10.0,Calm,Calm,-,N/A,,Clear,0,2012-09-29 15:53:00
10:53 AM,62.1,37.9,41,30.13,10.0,Calm,Calm,-,N/A,,Clear,0,2012-09-29 16:53:00
11:53 AM,64.9,41.0,42,30.11,10.0,NNW,4.6,-,N/A,,Clear,340,2012-09-29 17:53:00
12:53 PM,69.1,37.9,32,30.09,10.0,WNW,6.9,-,N/A,,Clear,300,2012-09-29 18:53:00
1:53 PM,72.0,39.0,30,30.06,10.0,NNW,6.9,-,N/A,,Clear,330,2012-09-29 19:53:00
2:53 PM,73.9,33.1,22,30.03,10.0,North,3.5,-,N/A,,Clear,360,2012-09-29 20:53:00
3:53 PM,75.0,30.0,19,30.01,10.0,WNW,6.9,-,N/A,,Clear,300,2012-09-29 21:53:00
4:53 PM,75.0,30.0,19,30.00,10.0,WNW,8.1,-,N/A,,Clear,300,2012-09-29 22:53:00
5:53 PM,73.9,30.9,21,30.01,10.0,NW,9.2,-,N/A,,Clear,310,2012-09-29 23:53:00
6:53 PM,68.0,35.1,30,30.04,10.0,NW,6.9,-,N/A,,Clear,310,2012-09-30 00:53:00
7:53 PM,61.0,39.0,44,30.07,10.0,SSE,5.8,-,N/A,,Clear,150,2012-09-30 01:53:00
8:53 PM,57.9,39.0,49,30.09,10.0,SE,6.9,-,N/A,,Clear,140,2012-09-30 02:53:00
9:53 PM,54.0,39.0,57,30.09,10.0,SSE,6.9,-,N/A,,Clear,150,2012-09-30 03:53:00
10:53 PM,53.1,37.0,55,30.09,10.0,SE,4.6,-,N/A,,Clear,130,2012-09-30 04:53:00
11:53 PM,51.1,39.0,63,30.11,10.0,SE,6.9,-,N/A,,Clear,140,2012-09-30 05:53:00